Showing default

SENTINEL 3A, 41335

Orbit data source: Space-Track

SENTINEL 3A, 41335 is an ESA payload satellite in SSO that was launched on Tue, 16 Feb 2016 UTC via an ROKOT launch vehicle from the Plesetsk Missile And Space Complex (PKMTR). Payload-class satellites include a variety of spacecraft equipped with specific instruments for various scientific and technological missions. These include communications satellites like Starlink; space stations such as the ISS; scientific satellites like the Hubble; Earth observation satellites from companies like Planet Labs, Umbra, and HawkEye 360; GPS; miniature CubeSats for education and research; and military/defense satellites.

Loading next visibility...
Identifier
41335, 2016-011A
Orbit
SSO
Last TLE update
7 hours ago
Origin
Manufacturer
Thales Alenia
Mission
Operational Civil Imaging
Bus & Motor
SENTINEL-3A, Unknown motor
Mass
1,250 kg wet, 1,150 kg dry
Launch date (UTC)
2016-02-16 (9 years ago)
Launch vehicle
ROKOT
Launch site
Plesetsk Missile And Space Complex (PKMTR)
Object type
Payload
Rocket body
Debris
Shape & HBR
Box + 1 Pan, 6.9 m
Radar Cross Section
12.454 m², Large (>1 m²)

Expand to show TLE details & history

TLE from 7 hours ago
0 SENTINEL 3A
1 41335U 16011A   25190.21127634  .00000075  00000-0  49164-4 0  9998
2 41335  98.6246 257.4856 0001452  93.3907 266.7439 14.26739914489153
Epoch: 2025-07-09T05:04Z
TLE epoch observation values (Epoch: 2025-07-09T05:04:14.275Z)
Latitude
-0.0001°
Longitude
-105.96903°
Altitude
805.635 km
Speed
7.451 km/s
True Right ascension
17h 09m 56s
True Declination
0° 00' 00"
Sunlit
Object was in full shadow at epoch
Visualization orbit readout
Latitude
-41.48784°
Longitude
-98.03326°
Altitude
819.256 km
Speed
7.442 km/s
Apparent Right ascension
14h 55m 01s
Apparent Declination
-50° 07' 04"
Sunlit
Object is in full shadow
Visualization observer readout
Local Sidereal Time
23:46:36
Azimuth
236.706° WSW
Elevation
-55.806°
Doppler factor
1
Orbital elements
Apogee altitude
800.836 km
Perigee altitude
798.752 km
Semi-major axis
7,177.931 km
Eccentricity
0.00015
Inclination
98.6246°
RAAN
257.4856°
Arg. of periapsis
93.3907°
True anomaly
Unknown
Mean anomaly
266.7439°
Eccentric anomaly
Unknown
Mean motion
3.56898 °/min
Orbital period
100.87 mins
BSTAR
0.000049164
Loading maneuver chart data...
Loading SW <> Apogee altitude chart data...
Loading historical data...
Loading historical data...
Loading historical data...
Loading historical data...
Loading historical data...
Loading historical data...
Loading historical data...
Other satellites on launch #11 in the year 2016 (2016-02-16 UTC)

SENTINEL 3A Visibility forecast

Observer location: undefined°, undefined°

Span
Click to sort rows by Start time (UTC) header in descending order
Start Az.
Max El. time (UTC)
Max El. Az.
Max El.
End time (UTC)
End Az.
10 mins2025-07-09 17:25:25.430Z13.254° NNE2025-07-09 17:30:25.430Z199.535° SSW44.849°2025-07-09 17:35:25.430Z195.206° SSW
4 mins2025-07-10 03:08:25.430Z82.774° E2025-07-10 03:10:25.430Z55.64° ENE16.074°2025-07-10 03:12:25.430Z30.914° NE
8 mins2025-07-10 04:45:25.430Z181.456° SSW2025-07-10 04:49:25.430Z274.571° WNW41.302°2025-07-10 04:53:25.430Z337.393° NNW
|